Theta_e
316 316 316 316 315 315 314 315 314 314 314 314 314 314 314 314 314 313 313 314 313 313 313 312 313 315 315 316 317 317 317 316 316 316 317 316 316 320 325 327 327 326 327 327 324 323 324 323 322 322 319 315 315 316 314 312 309 306 305 305 305 304
314 314 315 315 315 315 314 314 314 313 313 313 313 313 313 314 314 313 313 313 313 313 313 312 313 314 315 317 319 319 317 318 317 317 318 317 317 321 326 328 327 325 327 328 326 325 324 322 322 321 318 315 315 314 312 310 307 305 305 305 304 303
311 312 313 314 314 315 314 314 314 314 313 313 313 313 313 313 313 313 313 313 313 312 313 312 312 314 316 318 320 320 318 319 320 319 320 319 319 323 326 328 327 326 326 326 326 327 324 322 321 320 316 314 314 312 310 308 305 304 305 304 303 302
310 311 311 312 313 314 314 314 314 314 314 313 313 313 313 313 312 312 311 312 312 312 312 312 312 314 316 318 319 320 320 320 321 321 321 321 322 324 327 327 327 327 326 326 327 327 324 321 320 318 315 313 312 311 309 306 304 304 304 302 302 301
311 311 311 311 312 313 314 314 314 314 314 314 313 313 313 313 312 311 310 310 310 310 310 311 311 313 314 316 317 318 319 320 321 322 323 324 324 326 327 327 326 327 327 327 328 326 323 321 320 318 314 312 310 310 307 304 303 303 303 302 301 300
311 311 311 311 311 312 312 313 313 313 313 313 313 312 313 312 311 311 310 309 309 309 309 310 310 312 313 314 315 317 319 321 322 324 325 326 326 327 327 326 326 327 327 328 327 324 322 322 321 319 314 311 310 309 305 302 302 302 301 301 300 299
311 311 311 311 311 312 312 312 312 312 312 313 313 313 313 312 312 311 311 310 310 310 310 310 311 311 311 313 314 317 320 321 323 325 326 327 327 327 328 326 326 327 328 328 325 322 323 323 321 319 315 311 309 307 303 301 302 301 300 299 298 297
311 311 311 311 312 312 312 312 312 312 312 313 313 313 313 313 313 313 312 312 311 311 311 312 312 312 313 313 315 318 320 322 324 325 327 328 328 328 328 326 326 327 327 327 324 322 322 320 318 318 315 310 308 305 301 300 300 299 298 298 297 297
311 311 312 312 312 312 312 312 312 312 313 313 313 313 313 313 313 312 313 312 312 313 313 313 313 314 315 316 317 319 321 322 324 326 328 329 328 328 327 326 327 328 327 325 323 322 320 318 317 316 313 309 307 304 300 299 299 298 297 297 297 296
311 311 312 312 312 312 312 312 312 312 312 312 312 312 311 312 312 312 312 312 312 312 312 313 313 314 315 317 319 321 323 324 325 326 328 329 329 328 327 326 327 327 327 324 323 322 321 319 319 315 311 309 306 302 299 298 298 297 297 296 296 296
311 311 312 311 312 312 311 312 311 311 311 311 311 312 312 312 312 312 312 311 312 312 311 312 312 312 313 315 319 322 324 324 325 326 328 328 328 328 327 327 327 327 326 324 322 323 321 321 320 315 309 308 305 300 298 298 297 297 296 296 296 296
312 311 311 311 311 311 311 311 311 311 311 311 311 311 312 312 312 312 312 312 312 311 311 311 311 311 312 313 317 321 324 325 325 326 327 328 328 327 326 327 327 327 325 322 321 322 320 321 320 314 309 308 304 299 298 297 297 296 296 295 295 295
313 312 312 312 312 312 311 311 311 311 311 311 311 311 312 312 312 312 312 312 312 311 311 311 311 311 311 312 314 317 320 322 324 325 326 327 328 327 326 326 325 324 323 320 319 321 320 321 319 312 308 307 302 298 297 297 297 296 295 295 295 295
314 313 312 312 313 312 312 311 311 311 311 311 311 311 312 312 312 312 312 312 312 311 311 310 310 311 311 312 312 313 315 318 320 322 323 324 324 323 323 324 324 323 321 320 320 320 320 321 318 311 308 305 300 297 297 296 296 295 295 295 294 294
313 313 313 313 314 313 312 311 311 311 311 311 311 311 311 312 312 313 313 312 312 311 310 310 309 310 310 310 311 311 312 313 314 316 317 319 319 320 322 323 323 322 321 321 321 320 319 318 314 310 307 303 298 296 296 295 295 295 294 294 294 294
314 313 313 314 313 313 312 312 311 311 311 311 311 311 311 312 312 313 313 312 312 312 311 309 308 308 309 311 313 313 312 313 315 316 317 319 320 321 322 322 322 322 321 320 319 319 318 316 311 308 306 301 296 296 295 295 294 294 294 294 293 293
313 313 313 313 313 312 312 312 311 311 311 311 311 311 311 311 312 313 313 313 313 312 311 310 308 307 309 313 315 316 315 316 319 319 319 319 320 320 320 321 322 321 319 318 317 318 319 315 310 308 304 298 296 295 295 294 294 293 293 293 293 293
313 313 313 313 312 312 312 311 311 312 311 311 311 311 311 311 312 312 313 313 313 312 312 311 309 309 310 312 313 314 316 319 320 319 317 316 318 320 320 321 320 318 318 318 319 319 319 314 309 306 301 297 295 295 294 294 293 293 293 293 293 293
313 312 312 312 312 312 311 311 311 312 312 311 311 311 311 311 311 312 312 312 313 313 312 311 310 310 311 313 314 314 315 318 319 319 317 316 317 320 320 319 319 318 318 319 319 319 316 311 307 304 299 296 295 295 294 294 293 293 293 293 293 293
312 312 312 312 311 311 311 311 311 311 312 312 311 311 311 311 311 311 312 312 312 312 312 312 311 310 311 313 315 316 315 316 317 317 318 318 318 319 319 318 318 318 318 318 319 317 313 309 306 302 297 296 295 294 294 294 293 293 293 292 292 292
312 312 311 311 311 311 311 311 311 311 311 312 311 311 311 311 311 311 311 312 312 312 312 312 312 311 310 311 314 316 317 317 317 317 318 319 318 318 318 318 317 317 317 317 317 314 310 307 304 300 297 295 295 294 294 293 293 293 292 292 292 292
312 312 311 311 311 311 311 311 311 311 311 311 312 312 311 311 311 311 311 312 311 311 312 312 312 311 311 311 312 313 315 316 316 317 317 317 317 316 316 316 315 315 316 315 313 310 307 305 302 298 296 295 294 294 293 293 292 292 292 292 292 291
311 311 311 311 311 311 311 311 311 311 311 311 312 312 311 311 310 311 311 311 311 311 311 311 312 312 312 311 311 311 312 313 314 314 314 314 314 314 314 314 314 314 314 313 310 307 306 303 299 296 295 294 294 293 293 292 292 292 292 292 291 291
311 311 311 311 310 311 310 310 310 311 311 311 312 312 311 310 310 310 311 311 311 311 310 310 311 312 313 313 312 312 312 312 312 312 311 312 312 312 312 312 313 313 312 310 307 306 304 300 297 295 294 293 293 293 292 292 292 292 292 291 291 291
311 310 310 311 310 310 310 310 310 310 310 311 311 311 310 310 310 310 310 310 310 310 310 310 310 311 312 313 313 312 312 312 311 311 311 311 311 311 311 311 311 311 310 307 306 304 302 298 295 294 293 293 293 292 292 292 292 291 291 291 290 291
310 310 310 310 310 310 310 309 310 310 310 310 310 310 310 310 310 310 310 310 310 309 309 309 309 309 310 311 311 311 311 311 311 311 310 310 310 310 310 310 310 310 308 306 305 304 301 298 295 294 293 293 292 292 292 292 291 291 290 290 290 292
310 310 310 310 310 310 310 310 309 309 310 310 310 310 309 309 309 309 309 309 309 309 309 309 309 309 308 309 309 309 309 309 309 309 309 309 309 309 309 309 309 308 307 306 305 304 301 297 295 293 293 292 292 291 291 291 291 290 290 290 291 292
311 310 310 310 310 310 310 310 309 309 310 310 310 310 309 309 309 309 309 309 309 309 309 309 309 309 308 308 308 308 308 308 308 308 308 308 308 308 309 309 308 307 306 305 304 303 300 297 295 293 293 292 292 291 291 290 290 290 289 290 291 293
310 310 310 310 310 310 310 310 310 310 310 310 310 310 310 310 310 309 309 309 309 309 309 309 309 309 308 308 308 307 307 307 307 307 307 307 307 307 308 308 307 306 305 305 304 302 299 296 294 294 293 293 292 291 291 290 290 289 289 290 293 295
310 310 310 310 310 310 310 310 310 310 310 310 310 310 310 310 310 310 309 309 309 309 309 309 309 308 308 308 307 307 307 306 306 306 306 306 306 306 306 306 306 306 305 305 304 302 299 296 294 294 294 293 293 292 291 291 290 290 289 291 295 297
310 310 310 310 310 310 310 310 310 310 310 310 310 310 310 310 310 310 309 309 309 309 308 308 308 308 308 308 307 306 306 305 305 305 305 305 304 304 304 303 304 304 304 304 303 302 299 297 296 295 294 293 293 292 292 291 291 290 290 292 296 298
310 310 310 310 310 310 310 310 310 310 310 310 310 309 309 309 309 309 309 309 309 308 308 308 308 308 307 307 307 306 306 305 304 304 303 303 303 302 302 301 300 301 301 300 300 299 297 297 296 295 294 293 292 291 291 290 290 289 289 293 298 299
310 310 310 310 310 310 310 310 310 310 310 309 309 309 309 309 309 309 309 308 308 308 308 308 308 307 307 307 307 306 305 305 304 303 303 303 302 301 301 300 300 299 298 298 297 296 294 294 293 293 292 292 291 291 290 290 289 289 289 294 298 299
310 310 310 310 310 310 310 310 310 310 310 309 309 309 309 309 309 308 308 308 308 307 307 307 307 307 307 307 306 306 305 305 304 303 303 302 301 301 300 299 299 298 297 296 295 294 293 292 292 291 291 291 290 290 289 289 289 288 289 293 298 299
310 310 310 310 310 309 309 309 309 309 309 309 309 309 309 308 308 308 308 307 307 307 307 307 307 307 306 306 306 305 305 304 304 303 302 301 301 300 300 299 299 298 297 296 294 293 292 292 291 291 290 290 289 289 289 288 288 288 288 292 296 299
309 309 309 309 309 309 309 309 309 309 309 308 308 308 308 308 307 307 307 307 307 307 306 306 306 306 306 306 305 305 305 304 304 303 302 301 300 300 300 299 299 298 297 296 295 293 292 291 290 290 289 289 288 288 288 288 288 287 287 289 293 295
309 309 309 309 309 309 309 308 308 308 308 308 308 308 307 307 307 307 307 306 306 306 306 306 305 305 305 305 305 304 304 304 303 303 302 301 301 300 299 299 298 297 296 296 295 294 292 291 290 289 289 288 288 288 287 287 286 287 287 287 289 291
308 308 308 308 308 308 308 308 308 308 307 307 307 307 306 306 306 306 306 306 305 305 305 305 305 304 304 304 304 304 304 303 303 302 302 301 301 300 299 298 297 296 295 294 294 293 292 290 289 288 288 288 287 287 286 286 286 287 287 287 287 288
Wind_Speed
27 28 28 27 26 26 28 31 31 30 31 33 36 38 39 40 42 43 45 45 45 45 46 45 44 43 43 42 42 43 44 43 42 39 38 39 38 35 35 35 34 34 34 32 31 32 33 33 33 32 27 24 24 26 27 27 27 27 25 23 21 19
22 23 25 26 25 24 24 26 29 28 27 27 28 31 35 38 40 42 44 46 46 47 47 46 45 44 42 41 40 42 43 42 40 39 38 39 37 35 35 35 35 34 34 34 32 32 33 34 35 33 28 26 27 28 28 28 28 28 26 23 21 19
18 19 21 23 24 24 24 24 25 26 26 25 26 28 31 35 38 41 44 47 48 49 48 47 47 46 43 39 38 40 41 40 38 38 38 37 36 35 36 36 35 34 34 34 34 33 33 34 35 32 28 28 29 28 28 29 29 28 25 23 21 19
18 18 19 21 24 25 25 25 24 24 25 25 26 28 31 33 36 39 42 45 47 48 48 47 47 46 43 39 38 39 39 38 38 38 36 35 35 35 36 35 35 34 34 34 35 34 32 33 33 29 26 29 30 29 30 30 29 28 25 24 22 20
20 19 18 19 23 25 27 27 27 27 26 27 28 29 30 31 32 34 37 39 42 44 44 44 44 43 42 39 38 38 38 39 39 37 34 34 34 35 34 35 35 34 35 36 35 32 32 33 31 27 26 30 31 31 32 31 29 27 26 24 22 20
17 19 18 17 18 22 25 27 28 27 26 26 26 26 25 26 27 28 30 32 34 36 37 38 37 38 38 37 37 37 37 38 37 36 34 34 34 34 34 35 35 34 36 37 34 31 32 35 31 27 26 31 33 32 31 31 29 27 26 24 22 19
11 14 16 15 14 15 18 22 23 23 22 22 21 21 21 21 22 23 24 25 27 28 30 31 32 33 35 36 37 36 36 37 36 35 34 34 34 34 35 35 34 35 37 37 33 30 33 35 33 30 28 32 34 32 31 31 29 28 26 24 22 20
9 9 10 11 11 11 13 16 18 19 19 18 18 18 18 18 19 20 20 21 23 24 25 27 28 30 32 33 34 34 35 36 35 34 34 34 34 34 35 35 35 36 37 35 31 29 32 33 32 31 31 33 34 32 32 31 29 28 26 24 22 21
9 6 7 8 8 9 10 12 13 15 15 16 16 16 17 17 18 19 20 21 22 23 24 25 26 27 29 30 31 31 32 33 34 34 34 34 34 34 34 34 35 36 36 33 30 30 31 29 27 28 32 34 34 33 32 31 29 28 26 24 22 20
9 6 5 6 7 8 9 10 12 13 14 14 15 15 16 16 17 19 20 21 23 24 25 26 26 27 27 27 28 29 30 31 32 32 32 33 34 33 33 33 34 37 36 30 28 32 32 26 24 27 34 35 33 33 32 31 29 28 26 24 22 20
9 7 7 6 6 8 9 10 12 13 14 14 14 14 15 15 16 17 17 19 20 22 24 26 27 28 28 28 28 28 28 29 29 30 31 31 32 32 33 34 36 39 36 28 27 34 34 26 24 28 34 35 33 33 32 31 30 28 26 24 22 20
9 8 8 8 8 9 9 10 11 12 13 14 14 14 14 15 16 16 16 17 18 19 21 24 26 28 28 29 28 27 27 27 27 28 29 31 32 32 32 35 39 39 33 26 28 35 33 24 25 29 34 34 32 33 32 31 30 28 25 24 22 20
13 10 8 9 11 12 12 13 13 13 14 14 14 14 14 15 15 15 16 16 16 18 20 22 24 26 28 28 28 28 27 27 26 27 28 30 32 32 32 36 38 34 28 24 27 33 32 26 27 31 34 34 32 32 32 31 29 27 25 24 22 20
14 13 12 13 15 16 16 15 16 16 16 15 15 14 15 16 16 15 15 15 15 16 18 20 22 24 26 27 28 28 27 27 28 28 28 29 29 30 33 36 34 29 26 25 27 32 32 29 30 34 35 34 33 32 31 30 28 27 26 24 22 20
16 17 19 20 20 19 18 17 18 18 17 16 15 16 17 17 16 16 15 14 14 15 16 18 20 21 23 24 24 26 26 27 27 27 28 29 30 30 32 33 31 27 26 28 30 31 29 28 32 35 35 33 33 32 31 29 27 26 25 23 21 20
21 21 22 22 20 19 18 18 18 18 19 18 18 18 18 17 17 16 15 13 13 14 14 16 17 18 18 19 19 21 22 23 24 24 26 27 28 28 29 30 29 28 28 29 31 30 27 28 33 36 35 34 34 33 32 30 28 26 24 23 21 20
22 22 22 20 19 19 19 18 16 16 18 19 18 18 18 17 17 15 15 14 13 13 14 14 14 14 15 18 19 21 22 22 22 24 24 25 27 28 29 30 30 29 28 29 29 28 27 29 34 36 36 35 34 34 33 31 29 26 25 23 22 20
23 22 21 21 20 19 19 17 15 15 17 18 18 18 17 17 16 15 14 14 13 13 13 13 13 14 15 17 19 21 22 23 24 25 23 23 27 29 29 30 29 26 27 28 29 28 28 31 35 37 37 36 36 35 34 31 29 27 25 24 22 21
27 24 22 22 20 18 18 17 15 14 15 16 17 18 18 17 16 15 15 14 13 12 12 13 14 15 16 17 18 20 21 22 23 24 22 22 25 27 29 29 28 26 28 29 29 29 29 32 36 38 37 37 36 35 33 31 30 28 26 24 23 21
30 27 25 24 21 19 19 18 16 14 15 16 16 17 18 17 16 15 15 14 12 11 12 14 15 16 17 19 20 21 21 21 22 23 23 24 25 27 29 29 28 28 29 29 29 29 30 34 37 38 38 37 36 34 33 31 30 28 26 25 23 22
28 27 26 25 23 21 21 20 18 17 17 17 16 16 17 16 15 15 14 13 13 13 14 15 16 17 19 20 22 23 24 24 24 25 26 27 27 29 30 30 30 30 30 30 30 30 32 35 37 38 38 37 36 34 33 31 30 28 27 25 24 22
23 25 25 25 25 23 23 23 22 21 20 19 18 17 16 15 15 15 15 15 15 15 14 15 16 18 20 21 23 24 26 26 27 27 27 27 28 30 31 32 31 31 31 31 32 33 35 37 38 38 37 36 36 35 33 32 30 28 26 25 24 23
19 21 23 24 25 25 26 26 25 23 21 20 19 17 15 14 15 16 16 17 17 16 15 15 16 18 20 22 24 26 27 29 30 31 31 32 33 33 33 33 32 31 31 32 33 35 37 38 38 38 37 36 36 35 33 32 30 27 26 25 24 24
18 20 21 23 24 25 25 26 25 23 22 21 19 17 15 15 16 17 18 18 17 17 17 16 17 18 19 22 24 26 28 29 31 32 33 34 33 33 32 31 31 31 32 33 35 37 38 39 39 38 37 36 36 34 33 31 29 28 27 26 25 25
17 17 18 20 21 22 23 24 24 22 21 19 17 16 15 15 16 17 18 18 17 17 18 18 18 19 20 22 24 25 27 28 29 30 30 30 30 30 30 30 31 32 33 35 37 39 40 40 40 39 37 36 35 33 32 31 30 29 28 27 26 25
15 15 16 17 18 20 21 21 20 19 18 16 15 14 14 14 15 16 17 17 17 16 17 18 18 19 19 21 22 23 24 25 26 27 28 28 28 29 29 30 32 33 35 37 38 40 40 41 40 39 38 36 34 33 33 33 32 31 29 28 27 25
12 13 14 15 16 16 16 16 15 14 13 12 10 9 9 9 10 11 13 14 15 15 15 16 16 17 17 18 19 20 21 22 23 25 26 27 28 29 30 31 33 34 36 37 39 40 41 41 41 40 38 37 35 35 35 34 33 32 30 29 28 26
13 14 14 14 14 13 13 13 12 11 9 7 5 4 3 2 3 5 7 9 11 12 14 15 15 16 17 17 18 19 20 20 21 23 24 26 27 29 30 32 33 34 37 38 40 41 42 42 42 40 39 38 38 37 37 36 34 32 31 30 28 26
15 15 15 14 15 15 14 14 13 11 10 9 7 6 4 3 1 1 2 5 7 9 11 12 14 15 16 17 18 19 19 20 21 23 24 25 27 29 30 32 34 35 37 38 40 42 42 42 41 41 40 40 40 40 39 37 35 34 32 31 29 28
17 18 19 18 18 17 16 15 14 13 12 10 9 8 6 5 3 1 1 2 4 5 7 9 11 13 14 16 17 18 19 20 21 22 23 24 25 27 28 30 32 33 35 37 39 41 42 43 42 41 41 41 41 41 39 38 37 36 34 33 31 29
21 22 21 20 19 18 17 16 14 14 13 12 11 10 8 7 5 3 2 2 3 5 6 7 9 11 12 14 15 16 18 18 19 20 21 21 23 24 26 27 30 31 33 36 38 39 41 42 40 39 39 40 40 39 38 38 37 37 35 33 31 28
23 23 22 21 20 19 17 16 15 14 13 12 11 11 9 8 7 6 5 4 4 5 6 7 9 10 11 12 14 15 16 17 17 19 19 20 21 23 24 26 28 30 32 35 37 38 39 39 38 37 38 39 38 37 37 36 36 35 34 32 30 27
24 24 23 22 21 20 18 17 16 15 14 13 12 12 11 9 9 8 7 7 7 7 8 8 9 10 10 11 13 14 15 16 17 18 19 19 20 21 23 25 27 28 30 33 35 37 39 39 39 38 37 37 37 36 36 36 35 35 34 32 30 28
25 24 24 23 22 20 19 18 17 16 15 14 13 12 11 10 10 10 10 10 9 9 9 9 10 10 10 11 12 13 14 15 16 17 18 19 20 20 22 24 26 28 30 32 34 36 38 39 38 37 37 36 35 35 36 36 37 37 36 35 33 32
26 25 24 23 22 21 19 18 17 16 15 14 13 12 11 11 11 11 11 11 11 11 10 10 10 11 11 11 12 13 13 14 15 16 16 17 18 20 21 23 25 27 29 31 33 34 36 37 37 37 37 36 35 35 36 37 38 39 39 38 38 39
27 26 25 24 22 21 19 18 17 16 15 14 13 12 12 12 11 11 11 11 11 11 11 11 11 11 11 12 12 13 13 14 15 15 15 16 17 19 20 22 24 25 27 29 31 33 34 35 37 37 38 37 36 36 36 37 39 41 42 43 45 44
26 25 24 23 21 20 19 18 16 16 15 14 14 13 13 12 12 12 12 12 11 11 11 11 11 11 11 11 12 12 13 14 14 15 16 16 17 18 19 20 21 23 25 27 29 31 33 35 37 38 38 38 38 37 37 39 41 43 45 48 49 48
24 23 23 22 21 20 19 17 16 16 15 14 14 13 13 13 12 12 12 11 11 10 10 10 10 10 10 11 11 12 13 14 15 15 16 17 18 19 19 20 21 21 23 25 28 30 32 35 37 38 38 38 38 38 40 43 45 46 47 49 50 50
Wind_Direction
263 262 260 258 258 259 256 253 254 255 252 248 246 244 243 242 243 244 244 243 242 243 243 243 242 241 241 241 240 240 241 241 242 240 238 241 240 234 230 228 227 229 233 238 238 234 235 236 237 243 247 239 228 216 209 205 200 198 199 199 200 202
264 261 257 255 254 257 260 257 254 254 255 253 251 249 246 244 243 243 244 244 244 243 242 242 240 240 240 238 236 239 241 242 241 239 238 241 240 234 230 228 229 229 229 234 237 234 234 235 237 244 244 231 219 209 202 199 197 198 199 200 203 203
268 262 253 248 248 250 255 259 256 253 253 254 254 253 251 249 247 245 245 244 244 243 242 241 240 239 238 234 233 237 241 242 240 239 239 242 240 235 230 229 229 230 230 232 235 235 236 235 236 243 239 225 216 206 199 198 197 198 199 202 204 204
272 268 255 244 241 242 247 253 254 253 252 253 254 254 253 253 251 250 249 248 246 245 243 242 240 238 236 234 233 236 240 241 241 242 243 243 239 234 231 230 229 230 232 233 232 235 237 234 237 242 234 220 213 204 199 198 197 199 200 203 204 205
274 275 269 255 244 240 242 245 246 248 249 250 251 252 252 253 253 253 253 252 251 248 246 244 242 240 239 238 237 238 240 241 243 244 243 241 237 233 231 230 228 229 231 230 230 235 235 232 236 241 230 216 208 201 198 197 198 200 202 205 206 206
279 277 277 273 261 249 244 244 244 245 246 248 250 251 252 253 253 253 253 253 253 252 250 248 246 244 243 242 242 242 241 243 244 243 241 238 234 231 230 229 228 228 228 228 232 236 230 226 234 242 230 212 203 199 198 198 199 202 204 206 207 207
288 280 280 281 277 266 255 249 247 248 249 249 250 250 252 252 253 254 254 253 252 250 248 247 246 245 245 244 244 242 241 241 241 240 237 234 232 230 229 228 228 227 226 230 236 233 224 224 234 241 229 210 201 199 199 199 201 203 205 207 207 207
303 284 280 279 273 267 259 251 248 249 249 249 250 251 252 254 256 256 255 254 252 249 248 247 246 245 245 244 242 241 240 239 238 236 233 231 230 229 229 230 229 225 226 233 235 227 225 231 237 237 225 208 200 199 199 201 203 204 206 207 207 207
334 302 282 278 271 261 253 249 248 247 248 251 253 256 258 260 261 260 258 257 254 252 251 249 248 247 246 245 243 241 240 238 236 234 231 229 228 228 230 230 228 227 230 235 234 227 227 234 240 233 216 205 200 200 200 202 204 206 207 209 208 208
356 344 317 297 286 277 267 262 260 258 259 260 261 264 265 265 265 263 262 260 257 255 253 249 248 247 245 244 243 240 238 237 235 232 231 229 227 228 231 231 229 230 231 232 232 227 222 228 240 228 209 202 202 202 202 204 205 207 209 209 209 209
356 360 354 337 317 305 293 284 279 275 273 272 270 270 268 265 265 264 262 261 259 258 255 252 249 246 244 242 239 237 235 234 232 232 231 229 228 229 231 232 230 228 226 227 230 224 217 224 240 227 208 203 203 203 204 206 206 208 210 210 210 211
333 341 344 341 331 321 311 303 294 284 279 276 272 270 268 265 264 263 261 260 258 257 255 253 251 247 243 240 236 233 231 230 231 232 230 229 229 229 230 233 229 223 221 227 230 222 218 227 238 225 209 205 205 206 207 207 208 209 210 211 212 213
301 302 311 322 322 314 308 303 298 287 277 272 270 270 269 267 265 264 263 261 259 256 253 251 250 248 244 241 237 233 229 227 229 229 230 233 232 230 232 232 225 219 221 229 229 225 226 235 237 222 209 206 207 209 210 211 210 210 210 212 214 215
288 280 286 302 310 310 303 294 289 284 277 270 268 267 265 265 265 265 265 264 263 259 254 250 247 245 243 241 238 235 230 226 225 225 228 231 230 233 236 229 219 217 224 227 226 225 228 235 232 218 207 206 208 210 213 214 213 212 212 213 213 215
282 277 284 292 300 305 302 291 284 281 275 268 261 257 258 260 261 263 266 268 268 263 256 249 243 240 240 238 235 234 230 227 225 223 224 227 229 231 231 224 218 220 224 224 227 229 230 230 223 213 207 207 208 209 212 213 213 214 214 215 216 216
283 283 286 289 293 297 296 291 286 282 275 268 259 255 256 259 260 263 265 266 268 264 258 250 241 236 233 229 230 230 227 223 222 222 224 227 226 226 228 225 221 220 221 225 230 232 232 227 218 211 207 207 208 210 211 211 212 214 214 215 217 216
284 285 286 286 288 291 292 289 285 282 276 269 263 258 256 257 258 260 261 263 264 263 257 251 242 232 223 220 224 226 222 219 219 220 225 225 223 228 232 226 218 217 223 228 228 228 230 225 217 210 207 207 209 210 211 210 210 212 213 215 216 216
281 281 281 282 282 285 288 282 277 279 276 270 264 258 254 255 255 255 256 257 258 259 256 251 242 230 217 216 220 220 219 221 220 218 221 224 225 226 223 215 215 224 229 228 227 228 229 223 214 210 208 208 210 211 212 211 211 212 214 215 216 217
278 276 276 277 277 278 279 272 267 273 276 271 264 257 253 255 256 257 255 251 253 256 254 247 241 229 217 213 216 218 218 221 220 217 219 224 223 218 214 216 225 233 231 229 232 232 227 218 212 209 209 210 212 213 213 213 212 213 215 215 217 217
275 273 273 273 272 272 270 265 263 270 275 272 266 258 254 254 257 258 256 252 250 251 247 243 239 232 224 218 217 220 221 220 220 220 225 229 228 223 223 227 232 233 232 235 238 234 226 216 211 211 211 212 214 215 214 214 214 215 216 216 217 216
269 267 267 266 266 266 265 263 263 267 272 270 265 260 256 254 255 255 255 252 246 243 242 240 238 234 230 225 221 221 222 222 223 227 230 231 230 227 229 232 235 237 238 237 234 228 221 214 212 213 213 214 215 216 215 216 216 216 217 217 217 215
262 261 261 259 259 259 260 260 259 261 265 263 259 258 256 251 249 248 247 245 240 238 239 238 238 236 233 230 227 226 226 226 227 229 229 229 228 230 234 238 240 240 237 232 226 220 216 213 214 215 215 215 217 217 216 217 217 217 218 218 218 217
258 256 255 254 253 252 252 252 254 256 258 254 251 252 249 242 239 238 239 239 238 237 238 236 237 237 234 233 232 232 232 232 232 232 233 234 236 238 239 239 236 234 231 227 222 217 214 214 215 216 217 218 217 218 218 218 218 218 219 219 219 218
252 250 249 248 248 248 247 247 250 251 248 244 243 245 243 237 234 234 236 237 236 236 237 236 235 234 232 231 232 233 234 235 234 235 236 237 239 240 238 236 233 232 229 224 220 217 215 214 215 216 217 218 219 219 219 219 219 219 219 220 219 218
243 240 241 241 240 242 243 243 243 241 237 236 237 239 238 234 231 232 233 235 236 235 236 236 234 233 230 230 231 233 234 235 235 235 236 237 238 238 237 236 235 231 227 223 220 218 216 215 216 217 217 219 220 221 221 220 221 220 220 220 219 218
228 224 226 228 229 232 234 234 234 232 232 233 234 235 237 236 235 236 237 238 240 239 239 239 237 237 236 235 235 237 237 237 237 236 237 238 238 238 238 237 235 231 228 225 222 220 219 218 218 218 218 219 220 221 222 222 221 220 220 219 218 217
215 212 215 217 219 222 223 220 220 218 219 222 224 229 239 244 247 250 249 250 249 247 246 245 243 244 244 243 244 245 245 244 242 240 240 240 240 240 240 239 237 233 230 227 225 223 222 220 220 220 219 219 219 220 222 223 222 221 220 219 218 218
213 210 209 206 201 199 194 191 190 185 182 178 170 175 193 220 249 260 258 257 256 252 249 248 246 245 245 245 247 247 247 248 248 247 247 246 244 244 243 241 240 236 232 230 228 225 224 223 222 222 221 221 221 221 221 222 222 222 221 220 220 220
207 198 188 180 174 170 166 165 162 156 151 146 140 138 130 120 126 253 266 265 263 258 255 252 248 246 244 243 245 245 246 246 246 246 246 246 246 246 244 243 241 237 235 233 230 228 227 227 226 224 224 224 224 223 223 222 222 222 222 221 222 223
187 177 169 165 162 161 159 157 155 152 150 148 145 143 138 133 136 129 302 289 284 274 266 262 255 251 248 245 245 246 246 247 247 248 249 250 250 250 249 248 245 242 240 237 234 231 229 228 228 229 229 229 229 229 228 226 225 225 224 224 225 227
176 171 168 166 164 163 163 162 160 158 157 155 153 152 152 155 160 167 206 258 279 280 277 274 267 261 257 253 249 249 249 249 251 253 254 254 254 254 254 253 252 250 247 243 240 237 235 234 235 235 235 235 235 235 235 233 231 230 228 228 229 230
178 176 174 172 171 171 171 172 170 169 167 166 166 165 165 168 172 181 200 221 245 262 269 272 270 266 262 258 254 253 253 252 252 252 253 252 252 252 252 251 250 250 248 247 245 243 242 243 244 243 241 239 238 239 239 238 237 235 232 231 230 234
185 183 182 181 181 181 181 181 181 180 180 180 179 179 179 180 184 192 203 215 227 241 251 257 262 263 262 260 257 255 254 253 252 251 251 250 249 249 249 248 248 247 246 246 245 244 244 244 245 245 244 243 242 241 240 239 239 237 234 232 233 238
193 192 191 191 191 191 191 190 189 190 190 189 189 189 189 191 196 201 208 215 221 230 238 245 250 255 257 258 257 256 254 253 252 252 252 251 250 249 249 248 247 246 244 244 244 244 244 244 244 245 245 245 244 243 242 240 239 237 234 232 236 242
200 200 199 199 199 199 199 198 197 197 197 196 196 198 200 202 206 210 214 218 220 225 230 235 240 246 250 252 254 255 255 255 255 255 255 254 253 251 250 248 247 246 245 244 244 244 244 246 246 246 246 245 244 244 243 242 241 239 235 235 238 244
206 206 205 205 206 205 206 205 204 204 204 204 206 208 210 212 214 217 219 220 221 224 227 230 234 239 244 247 250 253 255 256 256 256 254 253 252 251 251 250 249 249 248 247 246 245 245 245 246 246 245 245 244 243 244 244 243 241 239 238 241 244
210 210 210 210 211 211 211 211 211 213 214 214 215 216 216 217 218 219 220 221 223 225 227 231 235 239 244 248 251 254 255 256 256 256 255 253 253 252 252 252 251 250 251 250 250 248 247 246 246 246 245 245 244 243 243 244 243 242 240 240 242 245
213 214 214 215 215 216 217 217 219 221 222 223 224 222 221 220 219 219 220 221 222 225 228 232 236 240 243 247 250 253 255 257 257 257 257 257 256 254 253 253 251 250 250 250 250 250 250 249 248 247 247 247 246 245 244 245 245 245 244 245 246 248